Location: ?ejeti?ky
(50.4060°N, 14.9016°E)
Time: 12:55:37
(UTC+00:00)

GEOS 3 Rocket - Pass Details

Date: 07 June 2020
Orbit: 772 x 847 km, 115.0° (Epoch: 11 July)

Event Time Altitude Azimuth Distance (km) Brightness Sun altitude
Rises 00:11:11 0° 123° (ESE) 3,308 6.6 -15.1°
Reaches altitude 10° 00:13:28 10° 120° (ESE) 2,391 5.9 -15.0°
Maximum altitude 00:18:34 61° 41° (NE) 930 4.2 -14.7°
Drops below altitude 10° 00:23:49 10° 322° (NW) 2,449 6.5 -14.5°
Sets 00:26:11 0° 319° (NW) 3,395 7.3 -14.3°
